Regional Weather Roundup
Issued by NWS Little Rock, AR

Home | Current Version | Previous Version | Text Only | Print | Product List | Glossary Off
Versions: 1 2 3 4 5 6 7 8 9 10 11 12 13 14 15 16 17 18 19 20 21 22 23 24 25 26 27 28 29 30 31

000
ASUS44 KLZK 160605
RWRLZK

WEATHER ROUNDUP FOR ARKANSAS
NATIONAL WEATHER SERVICE LITTLE ROCK AR
1200 AM CST TUE JAN 16 2018

NOTE: "FAIR" INDICATES FEW OR NO CLOUDS BELOW 12,000 FEET WITH NO
SIGNIFICANT WEATHER AND/OR OBSTRUCTIONS TO VISIBILITY.

ARZ001-003-010-029-160700-
NORTHWEST ARKANSAS

CITY           SKY/WX    TMP DP  RH WIND       PRES   REMARKS
FAYETTEVILLE   CLOUDY    11   2  67 NW20      30.63S WCI  -7
6HR MIN TEMP:  11; 6HR MAX TEMP:  17;

FORT SMITH     CLOUDY    18   3  52 N17       30.69R WCI   3
6HR MIN TEMP:  18; 6HR MAX TEMP:  25;

HARRISON       MOCLDY    10   2  69 NW12G20   30.59R WCI  -5
6HR MIN TEMP:  10; 6HR MAX TEMP:  18;

BENTONVILLE    PTCLDY     8   0  69 N15G22    30.66S WCI  -9
6HR MIN TEMP:   8; 6HR MAX TEMP:  14;

ROGERS         CLOUDY     8  -1  66 N13G21    30.63S WCI  -8
6HR MIN TEMP:   8; 6HR MAX TEMP:  14;

SILOAM SPGS    MOCLDY     9   0  67 N21G26    30.66F WCI -11
6HR MIN TEMP:   9; 6HR MAX TEMP:  15;

$$

ARZ004-005-016-160700-
NORTH CENTRAL ARKANSAS

CITY           SKY/WX    TMP DP  RH WIND       PRES   REMARKS
BATESVILLE     FLURRIES  18   5  57 N8G20     30.60R WCI   8
6HR MIN TEMP:  18; 6HR MAX TEMP:  28; 6HR PCP: TRACE;

FLIPPIN        CLOUDY    13   4  67 NW8       30.64R WCI   2
6HR MIN TEMP:  13; 6HR MAX TEMP:  20; 6HR PCP: TRACE;

MTN HOME       PTCLDY    12   3  67 N7        30.60S WCI   1
6HR MIN TEMP:  12; 6HR MAX TEMP:  19; 6HR PCP: TRACE;

$$

ARZ040-041-160700-
WEST CENTRAL ARKANSAS

CITY           SKY/WX    TMP DP  RH WIND       PRES   REMARKS
MENA           CLOUDY    23   7  50 NW12G21   30.57R WCI  12
MOUNT IDA      LGT SNOW  21  15  78 NW8       30.54R WCI  11
6HR MIN TEMP:  21; 6HR MAX TEMP:  38; 6HR PCP:  0.05;

$$

ARZ009-017-025-026-028-160700-
NORTHEAST ARKANSAS

CITY           SKY/WX    TMP DP  RH WIND       PRES   REMARKS
JONESBORO      LGT SNOW  20  14  77 N8G20     30.58R WCI  10
6HR MIN TEMP:  20; 6HR MAX TEMP:  30; 6HR PCP: TRACE;

NEWPORT        LGT SNOW  20  15  81 N15       30.59S WCI   6
6HR MIN TEMP:  20; 6HR MAX TEMP:  28; 6HR PCP: TRACE;

WALNUT RIDGE   MOCLDY    19   9  65 N21       30.61R WCI   3
6HR MIN TEMP:  19; 6HR MAX TEMP:  27; 6HR PCP: TRACE;

BLYTHEVILLE    LGT SNOW  19  19 100 N18       30.58R FOG     WCI   4
6HR MIN TEMP:  19; 6HR MAX TEMP:  30; 6HR PCP: TRACE;

$$

ARZ022-023-033-042-044-160700-
CENTRAL ARKANSAS

CITY           SKY/WX    TMP DP  RH WIND       PRES   REMARKS
LITTLE ROCK    LGT SNOW  22  18  85 N10       30.59S FOG     WCI  11
6HR MIN TEMP:  22; 6HR MAX TEMP:  41; 6HR PCP:  0.04;

N LITTLE ROCK    N/A     21  18  87 N5        30.60S WCI  15
6HR MIN TEMP:  21; 6HR MAX TEMP:  38;

JACKSONVILLE   FLURRIES  23  17  79 N6        30.57R WCI  15
6HR MIN TEMP:  23; 6HR MAX TEMP:  39; 6HR PCP:  0.01;

SEARCY         LGT SNOW  21  18  88 N13       30.59S FOG     WCI   9
6HR MIN TEMP:  21; 6HR MAX TEMP:  36; 6HR PCP: TRACE;

HOT SPRINGS    LGT SNOW  27  19  72 N12G17    30.54S WCI  17
6HR MIN TEMP:  27; 6HR MAX TEMP:  45; 6HR PCP: TRACE;

RUSSELLVILLE   CLOUDY    21   5  50 NW14      30.61R WCI   8
6HR MIN TEMP:  21; 6HR MAX TEMP:  35; 6HR PCP: TRACE;

CLINTON        CLOUDY    18   5  57 N10G17    30.62R WCI   6
$$

ARZ036-160700-
EAST ARKANSAS

CITY           SKY/WX    TMP DP  RH WIND       PRES   REMARKS
WEST MEMPHIS   LGT SNOW  23  21  92 N18G28    30.54R FOG     WCI   9
6HR MIN TEMP:  23; 6HR MAX TEMP:  35; 6HR PCP:  0.01;

$$

ARZ050-053-066-070-073-160700-
SOUTHWEST ARKANSAS

CITY           SKY/WX    TMP DP  RH WIND       PRES   REMARKS
ARKADELPHIA    LGT SNOW  28  27  93 N13       30.55S FOG     WCI  18
6HR MIN TEMP:  29; 6HR MAX TEMP:  43; 6HR PCP:  0.06;

CAMDEN         LGT SNOW  32  28  86 N8G15     30.50S VSB 1   WCI  25
TEXARKANA      LGT SNOW  27  27 100 N12       30.54R VSB 3/4 WCI  17
6HR MIN TEMP:  28; 6HR MAX TEMP:  42; 6HR PCP:  0.13;

EL DORADO      LGT SNOW  33  33 100 N10G20    30.48R FOG     WCI  25
6HR MIN TEMP:  33; 6HR MAX TEMP:  45; 6HR PCP:  0.02;

DE QUEEN       CLOUDY    25   9  50 N13G18    30.58R WCI  14
6HR MIN TEMP:  25; 6HR MAX TEMP:  40; 6HR PCP: TRACE;

$$

ARZ056-057-069-160700-
SOUTHEAST ARKANSAS

CITY           SKY/WX    TMP DP  RH WIND       PRES   REMARKS
PINE BLUFF     LGT SNOW  25  23  92 N18       30.54R FOG     WCI  11
6HR MIN TEMP:  26; 6HR MAX TEMP:  41; 6HR PCP:  0.08;

STUTTGART      LGT SNOW  24  22  91 N18       30.57R FOG     WCI  10
6HR MIN TEMP:  24; 6HR MAX TEMP:  39; 6HR PCP:  0.01;

MONTICELLO     LGT SNOW  31  26  82 N12G23    30.51R WCI  22
6HR MIN TEMP:  31; 6HR MAX TEMP:  45; 6HR PCP: TRACE;


$$






USA.gov is the U.S. government's official web portal to all federal, state and local government web resources and services.